Flag for U.S.A. Weather past 2 weeks in Grand Rapids, Michigan, U.S.A.

Now
31 °F

Ice fog.


Feels Like: 31 °F
Forecast: 23 / 34 °F
Wind: No wind

Location: Kent County International Airport

Current Time: Jan 29, 2015 at 11:41:21 AM

Latest Report: Jan 29, 2015 at 10:53 AM


Visibility: 5 mi

Pressure: 29.79 "Hg

Humidity: 85%

Dew point: 27 °F

Location of Grand RapidsLocation

Historic Weather in Grand Rapids — Graph

°F

Grand Rapids temperature yesterday

Maximum temperature yesterday: 31 °F (at 3:53 PM)
Minimum temperature yesterday: 10 °F (at 4:53 AM)
Average temperature yesterday: 21 °F

Past Weeks' High & Low Weather Summary

 TemperatureHumidityPressure
High43 °F (Jan 17, 3:53 PM)100% (Jan 18, 6:53 AM)30.43 "Hg (Jan 18, 6:53 AM)
Low6 °F (Jan 14, 9:53 AM)39% (Jan 28, 7:53 PM)29.59 "Hg (Jan 24, 2:53 PM)
Average26 °F76%30.02 "Hg
* Reported Jan 14 9:53 AM — Jan 29 9:53 AM, Grand Rapids, Weather by CustomWeather, © 2014

Note: Actual official high and low records may vary slightly from our data, if they occured in-between our weather recording intervals... More about our weather records

Advertising

Grand Rapids weather history for previous 24 hours

 ConditionsComfort  
Time TempWeatherWind HumidityBarometerVisibility
9:53 AM
Jan 29
30 °FIce fog.5 mph89%29.76 "Hg4 mi
8:53 AM30 °FLight freezing rain. Ice fog.3 mph89%29.76 "Hg4 mi
7:53 AM30 °FOvercast.7 mph82%29.76 "Hg7 mi
6:53 AM30 °FIce fog.6 mph85%29.76 "Hg6 mi
5:53 AM30 °FMostly cloudy.7 mph82%29.79 "Hg8 mi
4:53 AM30 °FMostly cloudy.9 mph82%29.82 "Hg8 mi
3:53 AM29 °FLight freezing rain. Overcast.6 mph82%29.87 "Hg5 mi
2:53 AM29 °FLight snow. Overcast.10 mph72%29.90 "Hg8 mi
1:53 AM29 °FClear.10 mph61%29.92 "Hg10 mi
12:53 AM27 °FClear.12 mph63%29.96 "Hg10 mi
11:53 PM
Jan 28
27 °FOvercast.13 mph61%30.01 "Hg10 mi
10:53 PM27 °FOvercast.12 mph58%30.04 "Hg10 mi
9:53 PM27 °FOvercast.15 mph51%30.06 "Hg10 mi
8:53 PM27 °FOvercast.10 mph42%30.09 "Hg10 mi
7:53 PM28 °FOvercast.9 mph39%30.12 "Hg10 mi
6:53 PM28 °FMostly cloudy.12 mph45%30.16 "Hg10 mi
5:53 PM28 °FMostly cloudy.7 mph49%30.18 "Hg10 mi
4:53 PM31 °FMore clouds than sun.13 mph40%30.21 "Hg10 mi
3:53 PM31 °FMore clouds than sun.10 mph41%30.22 "Hg10 mi
2:53 PM30 °FMostly cloudy.10 mph41%30.23 "Hg10 mi
1:53 PM29 °FOvercast.8 mph47%30.27 "Hg10 mi
12:53 PM28 °FPartly sunny.12 mph49%30.30 "Hg10 mi
11:53 AM27 °FPartly sunny.12 mph53%30.33 "Hg10 mi
Weather by CustomWeather, © 2014

See weather overviewHow to use our weather pages